Find Starlink 33726

NORAD ID: 63437 Int'l Des: 2025-069 Owner: SPXS Country: US Constellation: starlink operational
LEOCIRCULAR

实时位置

正在加载3D地球...

关于 Starlink 33726

正在加载描述...

即将过境

Passes for default location (London). Set your location on the main map for personalized predictions.

高度历史

Loading altitude history...

两行轨道根数

1 63437U 25069E 26124.32854042 .00046481 00000-0 10702-2 0 9993
2 63437 53.1603 243.3061 0001720 102.8700 257.2499 15.42185567 61885
Epoch: May 4, 2026 • Age: 8 hours

当前状态

高度 442.9 km
速度 7.65 km/s
星下点 43.89°N, 89.38°W
发射日期 Apr 4, 2025
运行时间 1 years
类型 internet

技术详情

分类 Payload
质量 575.00 kg
干质量 530.00 kg
总质量 575.00 kg
长度 0.30 m
直径 4.10 m
跨度 29.00 m
形状 Box + pan
制造商 SPXS
平台类型 Starlink V2MO
阶段状态 In Orbit
所有者/国家 SPXS/US

Most Searched